{"data":{"norad_id":68193,"epoch":"2026-09-19T21:29:59.743104Z","epoch_age_seconds":103784,"freshness":"FRESH","line1":"1 68193U 26050AC  26262.89583036  .00022131  00000+0  66398-3 0  9993","line2":"2 68193  53.1591  80.6565 0001231  67.1710 292.9423 15.34410484 30471","mean_motion":15.34410484,"eccentricity":0.0001231,"inclination_deg":53.1591,"raan_deg":80.6565,"arg_perigee_deg":67.171,"mean_anomaly_deg":292.9423,"bstar":0.00066398,"rev_number":3047,"period_min":93.847116857942,"perigee_km":461.82997612941,"apogee_km":463.51418332484,"semimajor_km":6840.8090797271,"source":"CELESTRAK","updated_at":"2026-09-20T09:00:43.831369Z"}}